QPF
0.03 0.04 0.08 0.12 0.08 0.05 0.03 0.02 0.03 0.03 0.04 0.04 0.03 0.04 0.04 0.04 0.04 0.05 0.05 0.04 0.04 0.04 0.05 0.05 0.06 0.06 0.05 0.05 0.06 0.06 0.06 0.06 0.06 0.05 0.05 0.05 0.04 0.05 0.08 0.07 0.05 0.06 0.06
0.03 0.03 0.07 0.14 0.10 0.07 0.04 0.03 0.03 0.03 0.03 0.04 0.03 0.02 0.03 0.04 0.05 0.04 0.05 0.06 0.06 0.05 0.05 0.05 0.06 0.06 0.06 0.06 0.05 0.05 0.05 0.07 0.06 0.05 0.08 0.07 0.05 0.04 0.05 0.05 0.05 0.05 0.05
0.04 0.03 0.04 0.11 0.12 0.09 0.05 0.04 0.03 0.03 0.04 0.03 0.03 0.03 0.03 0.03 0.03 0.04 0.04 0.05 0.05 0.05 0.05 0.04 0.04 0.04 0.04 0.05 0.05 0.06 0.07 0.06 0.05 0.05 0.08 0.10 0.07 0.05 0.05 0.04 0.04 0.05 0.05
0.03 0.03 0.03 0.05 0.08 0.10 0.06 0.04 0.02 0.03 0.04 0.04 0.04 0.04 0.02 0.02 0.03 0.04 0.04 0.04 0.05 0.03 0.04 0.04 0.04 0.04 0.04 0.05 0.06 0.08 0.09 0.06 0.04 0.04 0.07 0.10 0.08 0.05 0.04 0.04 0.04 0.05 0.05
0.03 0.03 0.04 0.05 0.05 0.07 0.07 0.04 0.03 0.03 0.04 0.04 0.04 0.04 0.03 0.02 0.03 0.04 0.05 0.04 0.05 0.04 0.04 0.06 0.06 0.05 0.04 0.06 0.10 0.10 0.10 0.07 0.06 0.06 0.07 0.09 0.09 0.07 0.05 0.04 0.04 0.04 0.04
0.03 0.04 0.04 0.04 0.04 0.04 0.05 0.04 0.03 0.03 0.04 0.05 0.06 0.05 0.03 0.04 0.04 0.03 0.04 0.04 0.05 0.04 0.03 0.03 0.03 0.03 0.03 0.05 0.08 0.09 0.12 0.10 0.07 0.06 0.08 0.09 0.09 0.07 0.07 0.06 0.05 0.04 0.03
0.02 0.03 0.04 0.04 0.05 0.04 0.04 0.04 0.03 0.03 0.04 0.05 0.07 0.06 0.04 0.03 0.04 0.04 0.04 0.05 0.04 0.02 0.01 0.01 0.01 0.01 0.01 0.03 0.04 0.05 0.18 0.14 0.08 0.06 0.07 0.09 0.09 0.08 0.06 0.06 0.05 0.05 0.04
0.02 0.03 0.04 0.02 0.03 0.04 0.05 0.05 0.04 0.04 0.04 0.04 0.06 0.05 0.02 0.01 0.03 0.03 0.05 0.04 0.03 0.02 0.03 0.02 0.02 0.01 0.01 0.01 0.02 0.03 0.07 0.09 0.11 0.08 0.07 0.08 0.09 0.07 0.06 0.04 0.04 0.03 0.03
0.02 0.02 0.03 0.02 0.02 0.03 0.04 0.05 0.05 0.04 0.03 0.03 0.04 0.05 0.04 0.02 0.01 0.02 0.03 0.04 0.04 0.03 0.03 0.04 0.04 0.04 0.03 0.01 0.02 0.02 0.03 0.05 0.11 0.09 0.07 0.09 0.08 0.06 0.05 0.04 0.04 0.03 0.02
0.02 0.02 0.04 0.03 0.03 0.03 0.03 0.03 0.04 0.04 0.03 0.03 0.03 0.03 0.05 0.05 0.03 0.03 0.03 0.05 0.06 0.04 0.05 0.07 0.06 0.06 0.04 0.03 0.03 0.03 0.03 0.04 0.09 0.07 0.06 0.07 0.07 0.07 0.05 0.04 0.03 0.02 0.02
0.03 0.03 0.04 0.04 0.03 0.03 0.04 0.05 0.05 0.04 0.03 0.02 0.02 0.02 0.03 0.04 0.03 0.03 0.03 0.05 0.06 0.05 0.06 0.08 0.08 0.07 0.07 0.05 0.05 0.04 0.02 0.03 0.04 0.05 0.05 0.05 0.06 0.06 0.06 0.06 0.04 0.03 0.02
0.04 0.06 0.06 0.05 0.05 0.05 0.06 0.07 0.06 0.05 0.04 0.03 0.02 0.03 0.03 0.03 0.03 0.03 0.03 0.03 0.05 0.07 0.07 0.08 0.10 0.09 0.06 0.04 0.05 0.04 0.02 0.02 0.02 0.03 0.03 0.04 0.05 0.06 0.06 0.05 0.04 0.03 0.03
0.03 0.04 0.06 0.07 0.05 0.04 0.04 0.05 0.05 0.05 0.04 0.03 0.02 0.02 0.02 0.02 0.04 0.05 0.03 0.02 0.03 0.07 0.08 0.08 0.11 0.09 0.05 0.04 0.03 0.03 0.02 0.02 0.01 0.02 0.02 0.03 0.04 0.06 0.07 0.06 0.05 0.04 0.03
0.01 0.02 0.04 0.04 0.04 0.03 0.04 0.04 0.05 0.04 0.03 0.02 0.02 0.02 0.02 0.02 0.02 0.02 0.02 0.01 0.02 0.04 0.07 0.07 0.10 0.09 0.05 0.05 0.03 0.03 0.01 0.01 0.01 0.01 0.02 0.02 0.02 0.04 0.08 0.08 0.06 0.04 0.04
0.01 0.02 0.04 0.02 0.03 0.04 0.04 0.04 0.04 0.04 0.03 0.02 0.02 0.02 0.01 0.02 0.02 0.02 0.03 0.02 0.02 0.02 0.05 0.06 0.06 0.07 0.04 0.03 0.03 0.02 0.01 0.01 0.01 0.01 0.02 0.02 0.02 0.02 0.05 0.09 0.06 0.03 0.03
0.01 0.02 0.04 0.03 0.03 0.03 0.02 0.03 0.02 0.03 0.03 0.03 0.03 0.03 0.02 0.02 0.02 0.02 0.03 0.02 0.03 0.03 0.03 0.04 0.04 0.05 0.03 0.02 0.03 0.02 0.01 0.01 0.01 0.01 0.01 0.01 0.01 0.01 0.04 0.08 0.06 0.03 0.02
0.01 0.01 0.03 0.05 0.04 0.04 0.03 0.02 0.02 0.02 0.02 0.03 0.02 0.02 0.02 0.02 0.02 0.02 0.03 0.02 0.03 0.03 0.03 0.03 0.03 0.04 0.03 0.03 0.04 0.02 0.01 0.01 0.01 0.01 0.01 0.01 0.01 0.01 0.03 0.07 0.05 0.03 0.03
0.02 0.02 0.02 0.05 0.06 0.05 0.03 0.03 0.02 0.02 0.02 0.02 0.02 0.02 0.03 0.03 0.02 0.03 0.04 0.02 0.02 0.03 0.02 0.03 0.03 0.03 0.03 0.03 0.05 0.03 0.02 0.01 0.01 0.01 0.02 0.02 0.01 0.01 0.02 0.05 0.04 0.03 0.03
0.04 0.03 0.02 0.04 0.05 0.05 0.04 0.03 0.03 0.02 0.02 0.02 0.02 0.03 0.03 0.04 0.02 0.03 0.03 0.03 0.03 0.03 0.03 0.02 0.03 0.04 0.04 0.04 0.04 0.03 0.04 0.03 0.01 0.02 0.02 0.01 0.01 0.01 0.01 0.02 0.03 0.03 0.03
0.03 0.03 0.03 0.04 0.03 0.04 0.04 0.03 0.03 0.03 0.03 0.03 0.03 0.03 0.03 0.03 0.03 0.03 0.03 0.03 0.05 0.04 0.03 0.02 0.03 0.05 0.04 0.04 0.03 0.03 0.03 0.04 0.02 0.01 0.01 0.01 0.01 0.01 0.01 0.01 0.01 0.01 0.01
0.02 0.02 0.03 0.04 0.04 0.03 0.03 0.03 0.02 0.02 0.02 0.02 0.02 0.03 0.03 0.03 0.04 0.03 0.04 0.04 0.05 0.04 0.03 0.03 0.04 0.08 0.05 0.03 0.02 0.03 0.02 0.03 0.03 0.02 0.01 0.01 0.01 0.01 0.01 0.01 0.01 0.01 0.01
0.04 0.03 0.03 0.04 0.04 0.03 0.03 0.03 0.02 0.02 0.02 0.02 0.02 0.02 0.02 0.03 0.04 0.04 0.04 0.04 0.04 0.03 0.02 0.02 0.04 0.07 0.05 0.02 0.01 0.03 0.03 0.02 0.03 0.03 0.02 0.01 0.00 0.00 0.00 0.00 0.00 0.00 0.01
0.04 0.05 0.04 0.03 0.06 0.05 0.03 0.03 0.03 0.02 0.02 0.01 0.01 0.02 0.02 0.02 0.04 0.03 0.03 0.03 0.03 0.02 0.02 0.02 0.03 0.05 0.03 0.02 0.01 0.02 0.03 0.02 0.01 0.02 0.02 0.01 0.01 0.00 0.00 0.00 0.01 0.00 0.00
0.03 0.04 0.04 0.03 0.04 0.06 0.05 0.03 0.02 0.02 0.02 0.02 0.01 0.01 0.01 0.01 0.02 0.02 0.02 0.03 0.02 0.02 0.01 0.01 0.01 0.01 0.01 0.02 0.02 0.02 0.03 0.03 0.02 0.02 0.02 0.02 0.01 0.01 0.01 0.00 0.01 0.01 0.01
0.02 0.03 0.02 0.03 0.03 0.05 0.05 0.03 0.02 0.01 0.01 0.01 0.01 0.01 0.01 0.01 0.01 0.02 0.01 0.01 0.02 0.02 0.02 0.02 0.01 0.01 0.01 0.01 0.02 0.03 0.04 0.05 0.03 0.03 0.02 0.02 0.02 0.01 0.01 0.01 0.01 0.01 0.01
0.02 0.03 0.03 0.02 0.03 0.03 0.03 0.03 0.01 0.00 0.00 0.01 0.01 0.01 0.01 0.01 0.02 0.02 0.02 0.01 0.01 0.01 0.02 0.02 0.02 0.02 0.01 0.01 0.02 0.03 0.04 0.05 0.04 0.04 0.04 0.04 0.04 0.02 0.02 0.01 0.01 0.01 0.01
MSLP
1013.60 1013.72 1013.78 1013.81 1013.84 1013.87 1013.92 1013.99 1014.07 1014.13 1014.16 1014.16 1014.12 1014.05 1013.98 1013.91 1013.88 1013.87 1013.90 1013.96 1014.04 1014.14 1014.25 1014.38 1014.52 1014.69 1014.90 1015.14 1015.41 1015.70 1016.01 1016.31 1016.61 1016.90 1017.18 1017.44 1017.67 1017.86 1018.00 1018.08 1018.07 1017.98 1017.81
1013.32 1013.46 1013.56 1013.64 1013.71 1013.78 1013.86 1013.94 1014.02 1014.08 1014.10 1014.09 1014.05 1013.99 1013.91 1013.84 1013.79 1013.76 1013.76 1013.80 1013.85 1013.93 1014.02 1014.14 1014.29 1014.46 1014.67 1014.91 1015.17 1015.45 1015.75 1016.05 1016.36 1016.67 1016.99 1017.29 1017.57 1017.82 1018.00 1018.10 1018.12 1018.03 1017.87
1013.01 1013.17 1013.31 1013.44 1013.57 1013.70 1013.81 1013.92 1014.01 1014.07 1014.10 1014.09 1014.05 1013.99 1013.91 1013.84 1013.77 1013.73 1013.70 1013.71 1013.73 1013.79 1013.87 1013.98 1014.12 1014.30 1014.51 1014.74 1014.99 1015.26 1015.54 1015.83 1016.14 1016.46 1016.80 1017.13 1017.45 1017.74 1017.96 1018.11 1018.15 1018.10 1017.96
1012.71 1012.88 1013.06 1013.25 1013.44 1013.61 1013.77 1013.91 1014.01 1014.07 1014.10 1014.10 1014.07 1014.02 1013.95 1013.88 1013.82 1013.76 1013.72 1013.70 1013.70 1013.73 1013.79 1013.89 1014.03 1014.20 1014.40 1014.62 1014.86 1015.11 1015.37 1015.65 1015.94 1016.26 1016.60 1016.95 1017.30 1017.62 1017.88 1018.07 1018.16 1018.16 1018.06
1012.48 1012.65 1012.85 1013.08 1013.31 1013.53 1013.72 1013.87 1013.98 1014.05 1014.09 1014.09 1014.08 1014.05 1014.01 1013.96 1013.91 1013.85 1013.80 1013.76 1013.74 1013.74 1013.78 1013.86 1013.98 1014.14 1014.33 1014.54 1014.76 1014.99 1015.23 1015.48 1015.75 1016.05 1016.38 1016.74 1017.10 1017.45 1017.76 1017.99 1018.14 1018.19 1018.16
1012.36 1012.51 1012.71 1012.95 1013.20 1013.44 1013.64 1013.80 1013.91 1013.98 1014.02 1014.04 1014.06 1014.06 1014.06 1014.05 1014.02 1013.98 1013.93 1013.88 1013.83 1013.81 1013.81 1013.87 1013.96 1014.10 1014.27 1014.46 1014.66 1014.86 1015.08 1015.30 1015.55 1015.84 1016.16 1016.51 1016.89 1017.26 1017.60 1017.88 1018.09 1018.21 1018.25
1012.34 1012.46 1012.64 1012.87 1013.11 1013.33 1013.52 1013.66 1013.77 1013.84 1013.89 1013.94 1013.99 1014.04 1014.09 1014.13 1014.14 1014.12 1014.08 1014.02 1013.95 1013.89 1013.86 1013.88 1013.94 1014.05 1014.19 1014.36 1014.53 1014.72 1014.91 1015.11 1015.35 1015.61 1015.93 1016.28 1016.66 1017.06 1017.44 1017.77 1018.04 1018.24 1018.35
1012.40 1012.47 1012.61 1012.80 1013.00 1013.19 1013.35 1013.47 1013.56 1013.63 1013.69 1013.77 1013.87 1013.97 1014.08 1014.18 1014.23 1014.24 1014.21 1014.14 1014.05 1013.96 1013.89 1013.86 1013.89 1013.96 1014.07 1014.21 1014.37 1014.54 1014.72 1014.91 1015.13 1015.39 1015.70 1016.06 1016.46 1016.88 1017.29 1017.68 1018.01 1018.27 1018.46
1012.48 1012.50 1012.59 1012.72 1012.87 1013.01 1013.12 1013.21 1013.28 1013.34 1013.43 1013.54 1013.68 1013.85 1014.02 1014.16 1014.26 1014.30 1014.27 1014.19 1014.08 1013.95 1013.85 1013.78 1013.77 1013.81 1013.90 1014.02 1014.17 1014.33 1014.50 1014.69 1014.91 1015.18 1015.49 1015.86 1016.27 1016.72 1017.17 1017.60 1017.99 1018.32 1018.58
1012.52 1012.48 1012.51 1012.58 1012.66 1012.75 1012.82 1012.87 1012.93 1013.00 1013.10 1013.24 1013.43 1013.64 1013.86 1014.04 1014.17 1014.23 1014.20 1014.11 1013.98 1013.83 1013.69 1013.60 1013.57 1013.59 1013.67 1013.78 1013.93 1014.09 1014.27 1014.47 1014.69 1014.97 1015.29 1015.67 1016.10 1016.57 1017.05 1017.53 1017.97 1018.36 1018.68
1012.44 1012.36 1012.34 1012.35 1012.38 1012.41 1012.44 1012.47 1012.51 1012.58 1012.70 1012.87 1013.09 1013.34 1013.58 1013.79 1013.93 1013.99 1013.97 1013.87 1013.72 1013.56 1013.41 1013.31 1013.27 1013.30 1013.38 1013.51 1013.67 1013.84 1014.03 1014.24 1014.49 1014.77 1015.10 1015.49 1015.94 1016.43 1016.94 1017.44 1017.92 1018.36 1018.74
1012.25 1012.14 1012.07 1012.03 1012.02 1012.01 1012.00 1012.01 1012.04 1012.11 1012.23 1012.42 1012.64 1012.90 1013.15 1013.36 1013.50 1013.56 1013.52 1013.42 1013.28 1013.12 1012.99 1012.91 1012.89 1012.95 1013.06 1013.22 1013.41 1013.61 1013.82 1014.05 1014.30 1014.59 1014.92 1015.32 1015.77 1016.27 1016.79 1017.32 1017.84 1018.31 1018.73
1011.96 1011.82 1011.72 1011.65 1011.60 1011.56 1011.52 1011.51 1011.52 1011.58 1011.70 1011.87 1012.09 1012.33 1012.56 1012.75 1012.87 1012.92 1012.88 1012.79 1012.66 1012.54 1012.45 1012.42 1012.46 1012.58 1012.75 1012.95 1013.18 1013.42 1013.65 1013.89 1014.15 1014.44 1014.77 1015.16 1015.60 1016.09 1016.62 1017.16 1017.69 1018.19 1018.64
1011.61 1011.46 1011.35 1011.25 1011.17 1011.10 1011.04 1011.00 1010.99 1011.02 1011.11 1011.25 1011.42 1011.62 1011.81 1011.96 1012.06 1012.09 1012.06 1011.99 1011.91 1011.85 1011.83 1011.89 1012.02 1012.21 1012.46 1012.74 1013.02 1013.30 1013.57 1013.82 1014.07 1014.35 1014.66 1015.03 1015.45 1015.92 1016.43 1016.97 1017.51 1018.02 1018.50
1011.26 1011.12 1010.99 1010.88 1010.78 1010.68 1010.59 1010.52 1010.46 1010.45 1010.48 1010.56 1010.68 1010.81 1010.95 1011.06 1011.12 1011.15 1011.13 1011.11 1011.09 1011.11 1011.19 1011.35 1011.59 1011.90 1012.24 1012.60 1012.96 1013.28 1013.58 1013.84 1014.10 1014.36 1014.64 1014.97 1015.36 1015.79 1016.28 1016.80 1017.32 1017.84 1018.33
1010.98 1010.84 1010.71 1010.59 1010.46 1010.34 1010.21 1010.08 1009.97 1009.89 1009.85 1009.85 1009.89 1009.95 1010.02 1010.09 1010.13 1010.16 1010.18 1010.20 1010.27 1010.39 1010.59 1010.87 1011.23 1011.65 1012.11 1012.56 1012.99 1013.37 1013.71 1013.99 1014.24 1014.48 1014.73 1015.03 1015.37 1015.76 1016.21 1016.69 1017.20 1017.70 1018.19
1010.77 1010.64 1010.52 1010.39 1010.24 1010.08 1009.90 1009.72 1009.54 1009.37 1009.24 1009.16 1009.11 1009.10 1009.11 1009.14 1009.18 1009.22 1009.28 1009.38 1009.53 1009.76 1010.08 1010.48 1010.96 1011.50 1012.06 1012.60 1013.11 1013.56 1013.93 1014.24 1014.50 1014.73 1014.96 1015.21 1015.51 1015.86 1016.26 1016.70 1017.17 1017.66 1018.13
1010.63 1010.52 1010.40 1010.26 1010.10 1009.90 1009.67 1009.42 1009.16 1008.91 1008.69 1008.52 1008.39 1008.32 1008.29 1008.30 1008.34 1008.41 1008.53 1008.70 1008.94 1009.27 1009.69 1010.20 1010.79 1011.42 1012.07 1012.71 1013.29 1013.80 1014.22 1014.57 1014.84 1015.08 1015.29 1015.52 1015.78 1016.09 1016.44 1016.84 1017.27 1017.71 1018.16
1010.52 1010.43 1010.32 1010.19 1010.01 1009.78 1009.49 1009.17 1008.84 1008.51 1008.21 1007.96 1007.78 1007.66 1007.61 1007.62 1007.68 1007.80 1007.97 1008.22 1008.54 1008.94 1009.44 1010.03 1010.69 1011.40 1012.12 1012.82 1013.47 1014.04 1014.52 1014.91 1015.22 1015.47 1015.69 1015.90 1016.14 1016.41 1016.72 1017.07 1017.45 1017.86 1018.27
1010.39 1010.33 1010.25 1010.12 1009.92 1009.67 1009.35 1008.97 1008.57 1008.18 1007.82 1007.52 1007.30 1007.17 1007.12 1007.15 1007.24 1007.41 1007.65 1007.95 1008.32 1008.78 1009.33 1009.96 1010.66 1011.40 1012.16 1012.90 1013.60 1014.22 1014.75 1015.19 1015.54 1015.82 1016.06 1016.28 1016.50 1016.75 1017.02 1017.33 1017.68 1018.04 1018.41
1010.23 1010.20 1010.14 1010.02 1009.83 1009.56 1009.21 1008.80 1008.36 1007.93 1007.54 1007.22 1006.99 1006.86 1006.84 1006.90 1007.05 1007.27 1007.55 1007.89 1008.30 1008.78 1009.33 1009.96 1010.65 1011.40 1012.16 1012.91 1013.63 1014.28 1014.86 1015.35 1015.74 1016.06 1016.33 1016.57 1016.79 1017.02 1017.28 1017.56 1017.87 1018.19 1018.52
1010.02 1010.02 1009.99 1009.90 1009.72 1009.46 1009.10 1008.68 1008.23 1007.78 1007.39 1007.07 1006.86 1006.76 1006.78 1006.89 1007.08 1007.35 1007.67 1008.03 1008.44 1008.91 1009.44 1010.02 1010.67 1011.37 1012.10 1012.83 1013.55 1014.21 1014.82 1015.34 1015.78 1016.14 1016.44 1016.70 1016.93 1017.17 1017.41 1017.67 1017.95 1018.24 1018.54
1009.80 1009.84 1009.84 1009.78 1009.63 1009.38 1009.04 1008.64 1008.19 1007.76 1007.38 1007.10 1006.92 1006.87 1006.93 1007.09 1007.33 1007.63 1007.97 1008.33 1008.72 1009.15 1009.62 1010.14 1010.71 1011.33 1012.00 1012.68 1013.36 1014.02 1014.62 1015.16 1015.63 1016.02 1016.36 1016.64 1016.89 1017.13 1017.37 1017.63 1017.89 1018.17 1018.44
1009.61 1009.68 1009.72 1009.70 1009.58 1009.37 1009.06 1008.68 1008.28 1007.88 1007.54 1007.30 1007.17 1007.17 1007.28 1007.48 1007.75 1008.07 1008.41 1008.76 1009.11 1009.48 1009.87 1010.29 1010.77 1011.30 1011.88 1012.49 1013.12 1013.73 1014.32 1014.86 1015.33 1015.75 1016.10 1016.40 1016.68 1016.93 1017.17 1017.43 1017.69 1017.96 1018.22
1009.50 1009.60 1009.68 1009.69 1009.61 1009.44 1009.18 1008.85 1008.49 1008.15 1007.86 1007.67 1007.59 1007.63 1007.78 1008.01 1008.30 1008.62 1008.94 1009.26 1009.56 1009.86 1010.17 1010.50 1010.88 1011.31 1011.79 1012.32 1012.87 1013.43 1013.98 1014.49 1014.96 1015.37 1015.74 1016.05 1016.34 1016.60 1016.86 1017.12 1017.38 1017.65 1017.92
1009.48 1009.61 1009.72 1009.77 1009.74 1009.61 1009.40 1009.13 1008.83 1008.54 1008.31 1008.17 1008.14 1008.21 1008.38 1008.62 1008.91 1009.22 1009.52 1009.79 1010.04 1010.28 1010.51 1010.76 1011.05 1011.38 1011.77 1012.21 1012.69 1013.18 1013.68 1014.15 1014.59 1014.99 1015.35 1015.67 1015.96 1016.23 1016.50 1016.77 1017.04 1017.31 1017.58
Thickness
5741 5740 5738 5737 5736 5735 5734 5733 5732 5731 5730 5729 5728 5727 5725 5724 5724 5724 5724 5723 5722 5721 5720 5719 5718 5717 5716 5715 5714 5713 5712 5711 5711 5710 5710 5709 5709 5708 5707 5706 5705 5704 5704
5740 5738 5737 5735 5734 5733 5732 5731 5729 5728 5727 5726 5726 5725 5724 5723 5722 5722 5721 5720 5719 5719 5718 5717 5716 5715 5714 5712 5711 5710 5709 5708 5707 5707 5706 5706 5705 5704 5704 5703 5702 5701 5700
5738 5737 5734 5733 5732 5731 5730 5729 5727 5726 5724 5724 5722 5722 5722 5721 5720 5719 5718 5717 5716 5716 5715 5714 5713 5712 5711 5710 5709 5708 5707 5705 5704 5704 5703 5702 5701 5700 5699 5698 5697 5696 5696
5736 5735 5732 5731 5730 5729 5728 5726 5724 5722 5720 5719 5719 5719 5718 5718 5717 5716 5715 5714 5713 5713 5712 5712 5711 5710 5709 5708 5707 5706 5704 5702 5701 5700 5699 5698 5697 5696 5695 5694 5693 5692 5692
5734 5732 5730 5729 5728 5726 5725 5723 5721 5719 5716 5715 5715 5715 5715 5714 5714 5713 5712 5711 5711 5710 5709 5708 5708 5707 5706 5705 5704 5703 5701 5699 5698 5696 5695 5694 5693 5692 5690 5689 5688 5688 5687
5731 5729 5727 5726 5725 5723 5721 5720 5717 5716 5714 5712 5712 5711 5710 5710 5710 5709 5709 5708 5707 5707 5706 5705 5705 5704 5703 5702 5701 5700 5698 5696 5694 5693 5691 5690 5689 5688 5687 5685 5684 5683 5683
5729 5727 5725 5723 5722 5720 5718 5716 5714 5712 5709 5709 5706 5702 5703 5705 5705 5705 5705 5704 5704 5704 5703 5702 5702 5701 5700 5699 5698 5697 5695 5693 5691 5689 5688 5686 5685 5683 5682 5681 5680 5679 5679
5726 5724 5722 5720 5719 5717 5714 5713 5711 5708 5706 5706 5701 5695 5691 5693 5697 5700 5700 5700 5700 5700 5699 5699 5699 5698 5697 5696 5696 5694 5692 5690 5688 5686 5684 5683 5681 5679 5678 5677 5676 5675 5674
5723 5721 5720 5718 5716 5714 5711 5710 5708 5705 5701 5700 5700 5694 5686 5683 5686 5691 5694 5695 5695 5695 5695 5696 5695 5694 5694 5693 5692 5690 5689 5687 5685 5684 5681 5679 5678 5676 5675 5673 5672 5672 5671
5719 5718 5716 5715 5713 5711 5709 5707 5706 5703 5700 5696 5695 5695 5693 5690 5683 5681 5686 5689 5691 5691 5692 5693 5692 5691 5691 5689 5688 5687 5686 5684 5682 5680 5678 5676 5675 5673 5671 5670 5669 5668 5668
5715 5715 5713 5711 5710 5708 5706 5705 5703 5700 5698 5695 5692 5691 5689 5687 5686 5680 5677 5681 5684 5687 5688 5689 5688 5688 5687 5686 5685 5684 5683 5681 5679 5677 5674 5672 5670 5669 5667 5666 5665 5665 5665
5711 5711 5710 5709 5707 5705 5704 5702 5700 5698 5696 5694 5692 5690 5687 5685 5682 5680 5676 5675 5676 5680 5684 5685 5685 5684 5683 5682 5682 5681 5679 5677 5675 5673 5670 5668 5666 5665 5663 5663 5662 5662 5662
5706 5706 5706 5705 5704 5703 5701 5699 5697 5695 5694 5691 5689 5687 5686 5685 5684 5681 5677 5673 5672 5674 5678 5681 5682 5681 5680 5679 5678 5677 5675 5674 5672 5669 5666 5664 5662 5661 5660 5659 5659 5659 5658
5704 5704 5703 5702 5701 5700 5699 5696 5694 5692 5690 5689 5687 5685 5683 5683 5682 5681 5677 5673 5668 5667 5670 5674 5677 5677 5677 5675 5674 5673 5671 5670 5668 5665 5663 5661 5659 5658 5657 5656 5656 5655 5654
5703 5701 5700 5699 5698 5697 5696 5693 5690 5689 5687 5686 5684 5682 5681 5680 5680 5679 5678 5675 5668 5661 5662 5667 5670 5673 5672 5672 5670 5669 5668 5666 5664 5662 5660 5658 5656 5655 5654 5654 5653 5652 5651
5701 5699 5697 5696 5695 5694 5692 5690 5687 5686 5684 5682 5681 5679 5678 5678 5677 5677 5675 5673 5670 5665 5660 5664 5666 5669 5669 5668 5667 5665 5664 5663 5661 5659 5658 5656 5654 5653 5652 5651 5650 5649 5647
5698 5696 5695 5693 5692 5691 5689 5687 5685 5683 5681 5679 5678 5677 5676 5675 5674 5673 5672 5670 5667 5665 5660 5661 5664 5665 5664 5663 5663 5662 5660 5659 5657 5656 5655 5653 5652 5651 5650 5649 5647 5645 5644
5696 5694 5693 5691 5689 5688 5687 5685 5682 5681 5678 5676 5675 5674 5673 5673 5671 5670 5669 5667 5665 5663 5660 5657 5658 5659 5659 5659 5659 5657 5656 5655 5654 5653 5652 5651 5650 5648 5647 5646 5644 5642 5641
5693 5692 5690 5688 5686 5685 5684 5683 5681 5679 5677 5675 5674 5672 5671 5670 5668 5667 5666 5664 5662 5661 5659 5656 5654 5655 5655 5655 5653 5652 5652 5651 5650 5650 5649 5648 5647 5646 5644 5642 5641 5639 5638
5691 5689 5688 5686 5684 5683 5682 5680 5678 5676 5674 5673 5672 5671 5669 5668 5667 5665 5664 5662 5660 5657 5655 5652 5650 5649 5649 5649 5647 5646 5645 5646 5646 5647 5646 5645 5644 5642 5641 5639 5638 5636 5634
5689 5687 5685 5683 5681 5680 5679 5678 5675 5674 5671 5670 5669 5668 5668 5668 5667 5665 5663 5660 5658 5654 5651 5648 5646 5645 5644 5643 5642 5642 5641 5641 5642 5643 5641 5641 5640 5639 5638 5637 5635 5634 5632
5686 5684 5682 5680 5678 5678 5677 5676 5673 5671 5670 5668 5666 5666 5666 5665 5665 5663 5662 5660 5657 5653 5649 5646 5643 5642 5641 5642 5641 5640 5638 5635 5635 5639 5637 5637 5637 5635 5636 5635 5634 5632 5630
5683 5681 5679 5677 5675 5674 5674 5672 5671 5669 5667 5665 5664 5663 5663 5663 5661 5660 5658 5657 5655 5653 5651 5648 5644 5643 5642 5642 5640 5638 5637 5635 5635 5637 5634 5633 5634 5633 5634 5634 5632 5630 5628
5680 5678 5676 5675 5673 5673 5671 5670 5668 5666 5664 5663 5662 5661 5660 5659 5658 5656 5654 5653 5651 5651 5650 5648 5646 5646 5645 5644 5642 5640 5638 5635 5635 5635 5633 5630 5632 5631 5633 5632 5631 5629 5626
5677 5675 5674 5673 5671 5671 5670 5667 5665 5662 5661 5660 5660 5659 5658 5656 5655 5653 5651 5649 5648 5648 5649 5648 5647 5646 5645 5644 5642 5638 5635 5631 5630 5631 5632 5629 5629 5628 5628 5628 5628 5626 5624
5674 5673 5671 5671 5670 5669 5668 5665 5662 5659 5656 5656 5656 5656 5656 5654 5653 5651 5649 5646 5644 5645 5645 5644 5643 5643 5643 5642 5641 5639 5636 5631 5628 5628 5631 5628 5627 5624 5622 5624 5624 5623 5621